Regional Weather Roundup
Issued by NWS Charleston, SC

Current Version | Previous Version | Graphics & Text | Print | Product List | Glossary On
Versions: 1 2 3 4 5 6 7 8 9 10 11 12 13 14 15 16 17 18 19 20 21 22 23 24 25 26 27 28 29 30 31 32 33 34 35 36 37 38 39 40 41 42 43 44 45 46 47 48 49 50
000 ASUS42 KCHS 190339 RWRCHS REGIONAL WEATHER ROUNDUP NATIONAL WEATHER SERVICE CHARLESTON SC 1100 PM EDT MON SEP 18 2017 NOTE: "FAIR" INDICATES FEW OR NO CLOUDS BELOW 12,000 FEET WITH NO SIGNIFICANT WEATHER AND/OR OBSTRUCTIONS TO VISIBILITY. NOT ALL STATIONS ARE QUALITY CONTROLLED. USE DATA WITH CAUTION... ESPECIALLY DEWPOINT OBSERVATIONS. SCZ027-030-031-034>040-042>050-190400- ...SOUTHEAST SOUTH CAROLINA... CITY SKY/WX TMP DP RH WIND PRES REMARKS N CHARLESTON PTCLDY 73 71 93 SW3 29.98R WATERFRONT PRK N/A 76 73 90 CALM 29.82R JOHNS ISLAND FAIR 73 72 94 CALM 29.98S PINOPOLIS N/A 75 72 88 CALM 29.90R MONCKS CORNER FAIR 68 66 94 CALM 29.98S SUMMERVILLE FAIR 68 68 100 CALM 29.99S BEAUFORT MCAS CLEAR 74 70 87 CALM 29.98R BEAUFORT ARPT FAIR 75 72 88 CALM 29.98S HILTON HEAD IS CLEAR 75 72 88 CALM 29.99S WALTERBORO CLEAR 70 68 94 CALM 30.00R ALLENDALE NOT AVBL ...SOUTHERN MIDLANDS AND PEE DEE... CITY SKY/WX TMP DP RH WIND PRES REMARKS GEORGETOWN FAIR 68 68 100 CALM 29.99R KINGSTREE FAIR 66 64 94 CALM 29.98S ORANGEBURG CLEAR 71 67 87 CALM 29.99R BARNWELL FAIR 72 70 94 CALM 30.00R AIKEN FAIR 68 64 88 CALM 30.05R MANNING FAIR 68 64 88 CALM 29.99R COLUMBIA PTCLDY 73 68 84 CALM 29.99R SUMTER CLEAR 71 66 83 CALM 29.97R FLORENCE CLEAR 70 67 90 CALM 29.99R MYRTLE BEACH CLEAR 72 68 87 CALM 29.99R N MYRTLE BEACH CLEAR 71 68 90 CALM 29.97R $$ GAZ063-065-086>088-099>101-113>116-118-119-134>141-150-190400- ...SOUTHEAST GEORGIA... CITY SKY/WX TMP DP RH WIND PRES REMARKS SAVANNAH ARPT CLEAR 75 69 81 CALM 29.99R HUNTER AAF CLEAR 75 70 84 CALM 29.96R FORT STEWART PTCLDY 73 68 84 CALM 29.97R STATESBORO CLOUDY 75 72 90 CALM 30.00R SYLVANIA CLOUDY 73 73 98 CALM 30.01R CLAXTON FAIR 72 71 97 CALM 30.00R ...CSRA...CENTRAL AND FAR SOUTHEAST GEORGIA... CITY SKY/WX TMP DP RH WIND PRES REMARKS THOMSON CLEAR 71 69 94 CALM 30.05S AUGUSTA-BUSH CLEAR 73 70 90 CALM 29.99R AUGUSTA-DANIEL CLEAR 80 68 66 E3 30.01R SWAINSBORO FAIR 72 70 94 CALM 30.01S VIDALIA CLEAR 73 72 94 CALM 30.00S EASTMAN FAIR 71 71 100 CALM 30.02S HAZLEHURST FAIR 73 64 72 CALM 29.99S ALMA CLEAR 71 68 90 CALM 29.99R WAYCROSS CLEAR 73 69 87 CALM 30.00S JESUP NOT AVBL BAXLEY FAIR 70 70 100 CALM 29.99S BRUNSWICK CLEAR 70 68 94 CALM 30.00S SAINT SIMONS CLEAR 76 71 85 CALM 29.99R $$ SCZ027-028-034-036>038-045-046-048>050-GAZ119-141-190400- ...LAKE AND SUPPLEMENTAL COASTAL OBSERVATIONS... STATION/POSITION TIME TEMP WIND PRES WAVE SWELL AIR SEA DIR/SP/G HT/PER HT/PER/DIR (UTC) (F) (DEG/KT/KT) (MB) (FT/S) (FT/S/D) WINYAH BAY 0230 73 300/ 2 1015.0R LAKE MURRAY 0320 74 CALM 1015.2 ACE BASIN NERRS 0245 73 CALM 1015.0S FORT PULASKI 0300 78 80 210/ 3/ 3 1015.8 SAPELO ISLAND 0300 76 CALM 1015.0 $$ ANZ835-935-AMZ111-154-330-350-352-354-370-450-454-472-190400- ...C-MAN AND BUOY OBSERVATIONS... STATION/POSITION TIME TEMP WIND PRES WAVE SWELL AIR SEA DIR/SP/G HT/PER HT/PER/DIR (UTC) (F) (DEG/KT/KT) (MB) (FT/S) (FT/S/D) BUOY 41004 0310 78 83 360/ 4/ 6 1014.5 BUOY 41008 0250 79 80 140/ 4/ 6 1015.2R 4/12 3/ 50/12 FOLLY BEACH CMAN 0300 76 250/ 3/ 4 1015.6R CAPERS NEARSHORE 0308 74 79 260/ 4/ 8 1014.9R FRIPP NEARSHORE 0308 78 210/ 4/ 6 1021.3R STATION/POSITION TIME TEMP WIND PRES WAVE SWELL AIR SEA DIR/SP/G HT/PER HT/PER/DIR (UTC) (F) (DEG/KT/KT) (MB) (FT/S) (FT/S/D) 5E ST. MARYS GA 0230 81 N/A 4/13 2/ 90/13 FRYING PAN BUOY 0310 78 81 350/ 16/ 19 1013.4 BUOY 41025 0250 75 79 340/ 29/ 35 1008.9S 13/11 11/ 90/11 CAPE LOOKOUT NC 0300 74 340/ 13/ 17 1012.3S BUOY 41002 0250 80 80 330/ 17/ 21 1010.7S 12/11 10/ 60/11 BUOY 41010 0310 84 10/ 8/ 12 1014.1 ST AUGUSTINE FL 0300 79 82 50/ 12/ 13 1015.5R $$

USA.gov is the U.S. government's official web portal to all federal, state and local government web resources and services.